Location: LDNL
(36.4545°S, 141.6685°E)
Time: 03:31:44
(UTC+11:00)

A-11 Canister half - Pass Details

Date: 14 August 2022
Orbit: 1524 x 1684 km, 47.3° (Epoch: 05 October)

Event Time Altitude Azimuth Distance (km) Brightness Sun altitude
Rises 22:40:57 0° 238° (WSW) 4,697 12.1 -55.7°
Reaches altitude 10° 22:44:00 10° 236° (SW) 3,720 11.4 -56.2°
Enters shadow 22:46:29 21° 233° (SW) 2,957 10.7 -56.7°
Maximum altitude 22:53:25 74° 150° (SSE) 1,616 - -57.8°
Drops below altitude 10° 23:03:03 10° 65° (ENE) 3,801 - -59.3°
Sets 23:06:12 0° 63° (ENE) 4,804 - -59.8°
